{"data":{"norad_id":62613,"epoch":"2026-09-18T23:12:31.203648Z","epoch_age_seconds":147094,"freshness":"FRESH","line1":"1 62613U 25009E   26261.96702782  .00007887  00000+0  26240-3 0  9998","line2":"2 62613  97.3945 343.6558 0003428   3.4475 356.6789 15.31421275 93266","mean_motion":15.31421275,"eccentricity":0.0003428,"inclination_deg":97.3945,"raan_deg":343.6558,"arg_perigee_deg":3.4475,"mean_anomaly_deg":356.6789,"bstar":0.0002624,"rev_number":9326,"period_min":94.030298749768,"perigee_km":469.22290606419,"apogee_km":473.91906585936,"semimajor_km":6849.7079859618,"source":"CELESTRAK","updated_at":"2026-09-20T09:00:34.717258Z"}}